DateTimeUTC,F1_A11,F1_S11,BsB_S11,BsG_S11,BsR_S11,BbsB_S11,BbsG_S11,BbsR_S11,BaB_A11,BaG_A11,BaR_A11,Tu_S11,T_S11,Uu_S11,U_S11,P_S11,T1_A11
2021-07-10T10:00:00Z,00000200,20000000,,,,,,,-000.14,0000.09,-000.02,17.9,24.8,05.4,03.5,0675.3,31.0
2021-07-10T10:01:00Z,00000200,20000000,,,,,,,0000.33,0000.00,0000.18,17.9,24.9,05.4,03.5,0675.3,31.0
2021-07-10T10:02:00Z,00000200,20000000,,,,,,,-000.42,0000.17,-000.15,17.9,24.9,05.4,03.5,0675.3,31.0
2021-07-10T10:03:00Z,00000200,60000000,,,,,,,0000.50,0000.18,0000.27,17.9,24.9,05.4,03.5,0675.3,31.0
2021-07-10T10:04:00Z,00000200,40000000,0000.79,0000.44,0000.38,-000.39,0000.23,0000.22,0000.26,0000.12,0000.74,18.1,24.7,05.5,03.6,0676.3,31.0
2021-07-10T10:05:00Z,00000200,00000000,0000.27,0000.03,0000.37,-000.26,0000.14,-000.06,0000.02,-000.20,-000.57,18.2,24.7,05.6,03.7,0676.4,31.0
2021-07-10T10:06:00Z,00000200,00000000,0000.79,0000.38,0000.18,0000.44,-000.05,-000.21,0000.31,0000.43,0000.45,18.3,24.7,05.6,03.8,0676.4,31.0
2021-07-10T10:07:00Z,00000200,00000000,0000.24,0000.21,0000.59,0000.32,-000.06,0000.28,-000.00,0000.20,-000.22,18.4,24.8,05.6,03.8,0676.4,31.1
2021-07-10T10:08:00Z,00000200,00000000,0000.42,0000.37,0000.13,-000.01,0000.15,0000.03,0000.18,0000.45,0000.41,18.4,24.8,05.6,03.8,0676.4,31.1
2021-07-10T10:09:00Z,00000200,00000000,-000.21,0000.33,0000.29,0000.17,0000.32,-000.03,-000.13,-000.20,-000.29,18.5,24.8,05.6,03.8,0676.4,31.1
2021-07-10T10:10:00Z,00000200,00000000,0000.64,0000.60,0000.29,-000.10,0000.06,-000.04,0000.09,0000.01,0000.39,18.5,24.8,05.6,03.8,0676.4,31.1
2021-07-10T10:11:00Z,00000200,00000000,0000.78,0000.32,0000.29,-000.68,0000.50,0000.16,0000.52,0000.14,-000.46,18.5,24.8,05.7,03.9,0676.5,31.1
2021-07-10T10:12:00Z,00000200,00000000,0001.11,0000.60,0000.18,0000.53,0000.24,0000.15,-000.02,-000.01,0000.58,18.4,24.8,05.6,03.8,0676.4,31.0
2021-07-10T10:13:00Z,00000200,00000000,0001.13,0000.24,0000.23,-000.09,0000.24,-000.37,0000.03,0000.50,0000.03,18.4,24.8,05.7,03.8,0676.4,31.0
2021-07-10T10:14:00Z,00000200,00000000,0001.08,0000.71,0000.48,0000.11,0000.41,-000.09,0000.27,-000.30,0000.03,18.4,24.7,05.7,03.9,0676.4,31.0
2021-07-10T10:15:00Z,00000200,00000000,-000.06,0000.39,0000.16,-000.37,0000.16,0000.03,-000.06,0000.16,0000.45,18.4,24.7,05.8,03.9,0676.4,31.0
2021-07-10T10:16:00Z,00000200,00000000,0000.79,0000.38,0000.37,-000.11,0000.12,0000.15,0000.41,0000.06,-000.20,18.4,24.7,05.8,03.9,0676.4,31.0
2021-07-10T10:17:00Z,00000200,00000000,0001.01,0000.50,0000.41,0000.01,-000.03,0000.15,-000.04,0000.37,0000.18,18.4,24.7,05.9,04.0,0676.4,31.0
2021-07-10T10:18:00Z,00000200,00000000,0001.10,0000.30,0000.29,0000.22,0000.34,0000.16,0000.48,-000.01,0000.00,18.3,24.7,05.8,04.0,0676.4,31.0
2021-07-10T10:19:00Z,00000200,00000000,0000.80,0000.44,0000.47,0000.42,-000.27,0000.20,0000.04,0000.05,-000.01,18.4,24.7,05.8,04.0,0676.5,31.0
2021-07-10T10:20:00Z,00000200,00000000,0001.16,0000.54,0000.30,0000.50,0000.08,0000.00,0000.05,0000.33,0000.41,18.4,24.7,06.0,04.0,0676.4,31.0
2021-07-10T10:21:00Z,00000200,00000000,0000.90,0000.34,0000.26,0000.38,0000.11,-000.03,-000.15,-000.37,-000.05,18.4,24.7,05.9,04.0,0676.4,31.0
2021-07-10T10:22:00Z,00000200,00000000,0000.50,0000.28,0000.50,-000.46,0000.10,-000.04,0000.41,0000.34,0000.15,18.4,24.7,06.0,04.1,0676.4,31.0
2021-07-10T10:23:00Z,00000200,00000000,0001.39,0000.47,0000.57,0000.47,0000.13,0000.15,0000.26,0000.34,0000.12,18.5,24.7,06.0,04.1,0676.5,31.0
2021-07-10T10:24:00Z,00000200,00000000,0000.54,0000.26,0000.35,-000.10,0000.43,-000.05,0000.05,0000.03,0000.03,18.5,24.8,06.0,04.1,0676.5,31.0
2021-07-10T10:25:00Z,00000200,00000000,0001.06,0000.71,0000.19,-000.03,-000.20,-000.27,0000.08,0000.09,0000.05,18.5,24.8,06.1,04.1,0676.5,31.0
2021-07-10T10:26:00Z,00000200,00000000,0000.92,0000.25,0000.33,-000.30,0000.08,-000.01,0000.25,0000.33,0000.05,18.4,24.8,06.1,04.1,0676.5,31.0
2021-07-10T10:27:00Z,00000200,00000000,0000.90,0000.55,0000.34,0000.19,0000.11,-000.23,0000.19,0000.03,0000.22,18.4,24.7,06.1,04.1,0676.5,31.0
2021-07-10T10:28:00Z,00000200,00000000,0000.50,0000.49,0000.83,-000.43,0000.05,0000.08,0000.15,0000.15,0000.23,18.4,24.7,06.2,04.2,0676.5,31.0
2021-07-10T10:29:00Z,00000200,00000000,0001.16,0000.38,0000.75,0000.01,-000.08,0000.37,0000.05,0000.43,-000.02,18.4,24.7,06.2,04.2,0676.5,31.0
2021-07-10T10:30:00Z,00000200,00000000,0001.47,0000.83,0000.50,0000.07,0000.39,0000.16,-000.08,-000.16,0000.09,18.4,24.7,06.2,04.2,0676.5,31.0
2021-07-10T10:31:00Z,00000200,00000000,0000.15,0000.51,0000.17,-000.41,0000.24,-000.12,0000.40,0000.40,0000.30,18.4,24.7,06.3,04.2,0676.6,31.0
2021-07-10T10:32:00Z,00000200,00000000,0000.84,0000.50,0000.26,-000.90,0000.21,-000.16,0000.10,-000.22,-000.09,18.4,24.7,06.2,04.2,0676.5,31.0
2021-07-10T10:33:00Z,00000200,00000000,0000.26,0000.61,0000.43,-000.47,0000.18,0000.04,-000.07,0000.05,0000.20,18.4,24.7,06.2,04.2,0676.5,31.0
2021-07-10T10:34:00Z,00000200,00000000,0001.02,0000.44,0000.17,0000.06,0000.09,-000.20,0000.32,-000.01,-000.24,18.4,24.7,06.2,04.2,0676.5,31.0
2021-07-10T10:35:00Z,00000200,00000000,0000.67,0000.41,0000.44,0000.08,0000.28,0000.04,0000.19,0000.46,0000.48,18.4,24.7,06.3,04.3,0676.5,31.0
2021-07-10T10:36:00Z,00000200,00000000,0000.85,0000.48,0000.82,-000.01,0000.12,-000.04,-000.38,0000.32,-000.12,18.4,24.7,06.3,04.3,0676.4,31.0
2021-07-10T10:37:00Z,00000200,00000000,0001.10,0000.83,0000.02,0000.08,-000.07,0000.24,0000.48,-000.35,0000.03,18.3,24.6,06.3,04.3,0676.4,31.0
2021-07-10T10:38:00Z,00000200,00000000,0000.87,0000.50,0000.20,-000.31,-000.02,0000.00,0000.01,0000.37,0000.24,18.4,24.7,06.4,04.4,0676.5,31.0
2021-07-10T10:39:00Z,00000200,00000000,0000.73,0000.36,0000.33,-000.49,-000.15,0000.13,0000.26,-000.07,-000.13,18.3,24.7,06.3,04.3,0676.5,31.0
2021-07-10T10:40:00Z,00000200,00000000,0000.70,0000.34,0000.57,0000.04,0000.26,-000.00,0000.18,-000.02,0000.15,18.3,24.6,06.4,04.3,0676.4,31.0
2021-07-10T10:41:00Z,00000200,00000000,0000.96,0000.32,0000.64,0000.56,0000.10,0000.02,-000.05,0000.19,0000.15,18.3,24.6,06.4,04.3,0676.4,31.0
2021-07-10T10:42:00Z,00000200,00000000,-000.14,0000.50,0000.46,0000.24,0000.01,-000.15,0000.39,0000.49,0000.49,18.3,24.6,06.4,04.3,0676.4,31.0
2021-07-10T10:43:00Z,00000200,00000000,0000.39,0000.23,0000.07,0000.03,0000.21,0000.05,0000.18,0000.05,-000.22,18.3,24.6,06.4,04.4,0676.4,31.0
2021-07-10T10:44:00Z,00000200,00000000,0000.70,0000.62,0000.44,-000.48,0000.16,0000.04,0000.22,-000.01,0000.14,18.3,24.6,06.4,04.3,0676.4,31.0
2021-07-10T10:45:00Z,00000200,00000000,0000.92,0000.58,0000.11,-000.08,0000.31,0000.08,-000.12,0000.05,-000.05,18.3,24.6,06.3,04.3,0676.5,31.0
2021-07-10T10:46:00Z,00000200,00000000,0000.45,0000.61,0000.39,-000.23,-000.10,0000.29,0000.20,0000.16,0000.33,18.3,24.6,06.4,04.4,0676.4,31.0
2021-07-10T10:47:00Z,00000200,00000000,0000.89,0000.54,0000.29,0000.33,0000.03,0000.21,0000.14,0000.12,0000.03,18.3,24.6,06.5,04.4,0676.4,31.0
2021-07-10T10:48:00Z,00000200,00000000,0000.90,0000.39,0000.55,-000.36,0000.17,0000.10,0000.23,0000.31,-000.34,18.3,24.6,06.5,04.4,0676.5,31.0
2021-07-10T10:49:00Z,00000200,00000000,0000.19,0000.35,0000.15,0000.02,0000.04,-000.07,-000.09,0000.09,0000.19,18.3,24.6,06.5,04.4,0676.4,31.0
2021-07-10T10:50:00Z,00000200,00000000,0001.51,0000.56,0000.56,0000.14,0000.26,-000.10,-000.06,-000.05,0000.47,18.3,24.6,06.5,04.4,0676.4,31.0
2021-07-10T10:51:00Z,00000200,00000000,0000.88,0000.54,0000.57,0000.07,0000.31,0000.33,0000.30,0000.08,-000.10,18.3,24.5,06.5,04.4,0676.4,31.0
2021-07-10T10:52:00Z,00000200,00000000,0000.89,0000.63,0000.46,0000.24,0000.05,-000.14,0000.36,0000.23,0000.26,18.3,24.5,06.6,04.5,0676.4,31.0
2021-07-10T10:53:00Z,00000200,00000000,0000.83,0000.23,0000.59,0000.37,0000.16,0000.09,0000.07,0000.28,-000.21,18.3,24.5,06.6,04.5,0676.4,31.0
2021-07-10T10:54:00Z,00000200,00000000,0000.83,0000.51,0000.61,-000.13,-000.05,0000.18,0000.05,-000.30,0000.23,18.2,24.5,06.6,04.5,0676.4,31.0
2021-07-10T10:55:00Z,00000200,00000000,0001.15,0000.45,0000.55,-000.18,-000.02,0000.05,0000.33,0000.19,0000.00,18.2,24.6,06.6,04.5,0676.4,31.0
2021-07-10T10:56:00Z,00000200,00000000,0000.99,0000.37,0000.41,0000.00,0000.11,0000.07,-000.07,0000.45,0000.16,18.2,24.5,06.6,04.5,0676.4,31.0
2021-07-10T10:57:00Z,00000200,40000000,,,,,,,0000.06,-000.19,0000.12,18.2,24.6,06.8,04.6,0676.5,31.0
2021-07-10T10:58:00Z,00000200,60000000,,,,,,,-000.03,-000.12,-000.28,18.0,24.7,06.5,04.3,0675.5,31.0
2021-07-10T10:59:00Z,00000200,20000000,,,,,,,0000.16,-000.15,0000.03,18.0,24.8,06.5,04.3,0675.4,31.0
